TV
NORAD ID: 26638
Int'l Code: 2000-081A
Perigee: 35,790.0 km
Apogee: 35,798.0 km
Inclination: 1.0 °
Period: 1,436.1 minutes
Semi major axis: 42164 km
Launch date: December 20, 2000
Source: (SES)
Comments: Direct-to-home; broadcasting, multimedia; 16 Ku-band; UK and Ireland.
Two Line Element Set (TLE):
1 26638U 00081A 13141.88866814 .00000152 00000-0 00000+0 0 2522
2 26638 000.9936 078.9448 0000941 306.4437 202.1978 01.00270904 45578
Source: AFSPC
NASA's NSSDC Master Catalog entry for ASTRA 2D